Volver al catálogo

STARLINK-31122

ActivoComunicacionesVLEO
NORAD 58774·PAYLOAD·🇺🇸 United States

Lanzado Jan 14, 2024 desde Vandenberg Space Force Base

Loading…

Próximos Pases (próximas 24 horas)

TLE

ActualizadoSource: CelesTrak SupGP

Época: Sep 15, 2026, 03:17 UTC

1 58774C 24011K   26258.13729167 -.00037153  00000+0 -10980-2 0  2586
2 58774  53.1581 212.6845 0001358  91.4394 137.0382 15.34400690    18

Sigue STARLINK-31122 en tiempo real con AllMySat

Download on the App Store